Погода в Софийске

Россия / Хабаровский край     52°15′19″N   133°59′24″E
темп.,
°C
ветер,
м/с
пор.,
м/с
влажн.,
%
обл.,
%
осадки,
мм/ч
давл.,
гПа
погр.,
м
19 мая, ср
ср1901:00+3ююз1186100 0.3 100310
04:00+1ююв0191100 0.3 100510
07:00+3вюв11833 0.0 1004140
10:00+7зсз344370 0.0 10031559
13:00+8сз554466 0.0 10041518
16:00+9зсз474595 0.0 10041849
19:00+8зсз344338 0.0 10051298
22:00+2св22634 0.0 100818
20 мая, чт
чт2001:00+2в2266100 0.0 100723
04:00+2в3574100 0.0 1005130
07:00+2вюв2696100 2.9 1002280
10:00+2вюв1296100 12.2 1001177
13:00+6юз41297100 0.8 1000892
16:00+7з6877100 1.2 10031147
19:00+6з3573100 0.1 1006414
22:00+2зсз1291100 0.1 101023
21 мая, пт
пт2101:00−1в11938 0.0 101112
04:00−2всв1194100 0.0 101212
07:00+2всв0082100 0.0 1011100
10:00+7з3661100 0.0 10091075
13:00+8сз376563 0.0 10081133
16:00+9сз576057 0.1 10071292
19:00+8ссз3462100 0.0 1008867
22:00+3с2286100 0.1 101283
22 мая, сб
сб2201:00+2всв228390 0.1 101240
04:00+2в239229 0.1 101184
07:00+3в2595100 0.0 1012287
10:00+5в467197 0.3 1010489
13:00+9вюв4660100 0.0 1008766
16:00+7всв4769100 0.1 1008288
19:00+8в476751 0.0 1007297
22:00+3в358834 0.3 1009113
23 мая, вс
вс2301:00+3в238797 0.4 100862
04:00+2в228883 0.4 100634
07:00+7в2279100 0.0 100487
10:00+9вюв2291100 0.9 100042
13:00+10ююз2795100 2.8 1000480
16:00+11вюв1293100 5.1 999103
19:00+11юв2392100 0.1 997154
22:00+10вюв2496100 0.4 99583